contact:dominique.lefevre@mio.osupytheas.fr, maurice.libes@osupytheas.fr
Project:EMSO Ligure-ouest http://www.emso-fr.org/EMSO-France
Sensor Aquadopp, line 04 Serial AQD8517 
DOI : "https://doi.org/10.17882/74513; https://doi.org/10.17882/83244" 
Title:EMSO Ligure Ouest : Data ligne ALBATROSS capteur AQUADOPP - deploiement 2021
Id,Date,Profondeur,Latitude,Longitude,X_East,Y_North,Z_Up,Amplitude_X,Amplitude_Y,Amplitude_Z,Batterie,SoundSpeed,Heading,Pitch,Roll,Pressure,Temperature,Speed,Direction
, , m, degrees North, degrees East, m.s-1, m.s-1,m.s-1, 1, 1, 1, Volt, m.s-1, degree, degree, degree, dbar, degree_C, m.s-1, degree
04,2021-11-21T21:30:00,1000.0,42.79,6.0312,-0.026,0.009,0.004,54.0,55.0,53.0,12.7,1504.6,341.1,-0.6,-0.4,967.673,13.26,0.027,289.1
04,2021-11-21T22:00:00,1000.0,42.79,6.0312,-0.032,0.016,-0.001,53.0,54.0,53.0,12.7,1504.6,342.0,-0.5,-0.4,967.661,13.25,0.035,296.6
04,2021-11-21T22:30:00,1000.0,42.79,6.0312,-0.027,0.028,0.008,53.0,56.0,53.0,12.7,1504.6,342.9,-0.6,-0.4,967.658,13.25,0.038,316.0
04,2021-11-21T23:00:00,1000.0,42.79,6.0312,-0.024,0.034,0.017,54.0,55.0,53.0,12.7,1504.6,344.4,-0.6,-0.4,967.596,13.25,0.041,324.8
04,2021-11-21T23:30:00,1000.0,42.79,6.0312,-0.024,0.027,0.015,53.0,55.0,53.0,12.7,1504.6,345.9,-0.5,-0.4,967.636,13.26,0.036,318.4
04,2021-11-22T00:00:00,1000.0,42.79,6.0312,-0.019,0.027,-0.005,54.0,56.0,53.0,12.7,1504.6,346.6,-0.6,-0.4,967.585,13.26,0.033,324.9
04,2021-11-22T00:30:00,1000.0,42.79,6.0312,-0.024,0.023,0.017,53.0,56.0,54.0,12.7,1504.6,350.7,-0.5,-0.4,967.53,13.27,0.033,313.8
04,2021-11-22T01:00:00,1000.0,42.79,6.0312,-0.049,0.044,0.008,53.0,55.0,53.0,12.7,1504.6,340.4,-0.5,-0.4,967.564,13.27,0.065,311.9
04,2021-11-22T01:30:00,1000.0,42.79,6.0312,-0.031,0.024,0.014,52.0,54.0,53.0,12.7,1504.6,342.1,-0.5,-0.4,967.585,13.27,0.039,307.7
04,2021-11-22T02:00:00,1000.0,42.79,6.0312,-0.029,0.034,-0.002,52.0,55.0,51.0,12.7,1504.6,345.1,-0.5,-0.4,967.559,13.27,0.044,319.5
04,2021-11-22T02:30:00,1000.0,42.79,6.0312,-0.022,0.038,0.007,51.0,55.0,53.0,12.7,1504.6,343.5,-0.5,-0.4,967.523,13.27,0.043,329.9
04,2021-11-22T03:00:00,1000.0,42.79,6.0312,-0.021,0.034,0.022,53.0,54.0,52.0,12.7,1504.6,344.7,-0.5,-0.4,967.545,13.27,0.039,328.3
04,2021-11-22T03:30:00,1000.0,42.79,6.0312,-0.034,0.033,0.012,52.0,55.0,52.0,12.7,1504.6,345.7,-0.5,-0.4,967.51,13.26,0.047,314.1
04,2021-11-22T04:00:00,1000.0,42.79,6.0312,-0.04,0.026,0.003,55.0,55.0,50.0,12.7,1504.6,347.6,-0.5,-0.4,967.584,13.26,0.047,303.0
04,2021-11-22T04:30:00,1000.0,42.79,6.0312,-0.035,0.042,0.009,55.0,55.0,52.0,12.7,1504.6,349.2,-0.5,-0.4,967.564,13.25,0.054,320.2
04,2021-11-22T05:00:00,1000.0,42.79,6.0312,-0.032,0.042,-0.014,52.0,56.0,51.0,12.7,1504.6,351.6,-0.5,-0.4,967.587,13.25,0.052,322.7
04,2021-11-22T05:30:00,1000.0,42.79,6.0312,-0.014,0.045,-0.007,54.0,55.0,54.0,12.7,1504.6,353.9,-0.5,-0.4,967.622,13.25,0.047,342.7
04,2021-11-22T06:00:00,1000.0,42.79,6.0312,-0.027,0.038,0.01,53.0,55.0,53.0,12.7,1504.6,349.5,-0.5,-0.4,967.637,13.25,0.046,324.6
04,2021-11-22T06:30:00,1000.0,42.79,6.0312,-0.019,0.041,0.003,55.0,57.0,54.0,12.7,1504.6,355.6,-0.5,-0.4,967.664,13.25,0.045,335.1
04,2021-11-22T07:00:00,1000.0,42.79,6.0312,-0.026,0.031,0.003,55.0,56.0,53.0,12.7,1504.6,350.2,-0.5,-0.4,967.708,13.26,0.04,320.0
04,2021-11-22T07:30:00,1000.0,42.79,6.0312,-0.02,0.038,0.005,55.0,58.0,56.0,12.7,1504.6,350.5,-0.5,-0.4,967.736,13.26,0.042,332.2
04,2021-11-22T08:00:00,1000.0,42.79,6.0312,-0.018,0.027,0.016,55.0,60.0,55.0,12.7,1504.6,351.3,-0.5,-0.4,967.741,13.26,0.032,326.3
04,2021-11-22T08:30:00,1000.0,42.79,6.0312,-0.018,0.03,0.006,56.0,58.0,55.0,12.7,1504.6,355.2,-0.5,-0.4,967.763,13.26,0.034,329.0
04,2021-11-22T09:00:00,1000.0,42.79,6.0312,-0.006,0.033,0.004,55.0,58.0,56.0,12.7,1504.6,353.1,-0.5,-0.4,967.785,13.26,0.033,349.7
04,2021-11-22T09:30:00,1000.0,42.79,6.0312,-0.018,0.025,-0.001,56.0,57.0,54.0,12.7,1504.6,353.3,-0.5,-0.4,967.793,13.26,0.03,324.2
04,2021-11-22T10:00:00,1000.0,42.79,6.0312,-0.012,0.019,-0.011,56.0,57.0,57.0,12.7,1504.6,350.5,-0.5,-0.4,967.799,13.27,0.022,327.7
04,2021-11-22T10:30:00,1000.0,42.79,6.0312,-0.025,0.016,0.0,54.0,58.0,53.0,12.7,1504.6,350.0,-0.5,-0.4,967.76,13.27,0.029,302.6
04,2021-11-22T11:00:00,1000.0,42.79,6.0312,-0.017,0.024,0.007,56.0,58.0,56.0,12.7,1504.6,351.2,-0.5,-0.4,967.758,13.27,0.029,324.7
04,2021-11-22T11:30:00,1000.0,42.79,6.0312,-0.004,0.015,-0.006,55.0,58.0,55.0,12.7,1504.6,350.8,-0.5,-0.4,967.731,13.27,0.015,345.1
04,2021-11-22T12:00:00,1000.0,42.79,6.0312,-0.012,0.013,0.005,55.0,61.0,56.0,12.7,1504.6,352.7,-0.5,-0.4,967.697,13.27,0.017,317.3
04,2021-11-22T12:30:00,1000.0,42.79,6.0312,-0.012,0.015,0.005,55.0,59.0,54.0,12.7,1504.6,352.7,-0.5,-0.4,967.661,13.27,0.019,321.3
04,2021-11-22T13:00:00,1000.0,42.79,6.0312,-0.011,0.024,0.0,56.0,56.0,54.0,12.7,1504.6,351.9,-0.5,-0.4,967.654,13.27,0.026,335.4
04,2021-11-22T13:30:00,1000.0,42.79,6.0312,-0.019,0.011,0.012,55.0,59.0,54.0,12.7,1504.6,352.2,-0.5,-0.4,967.641,13.27,0.021,300.1
04,2021-11-22T14:00:00,1000.0,42.79,6.0312,-0.024,0.011,0.0,55.0,58.0,54.0,12.7,1504.6,351.5,-0.5,-0.4,967.629,13.27,0.026,294.6
04,2021-11-22T14:30:00,1000.0,42.79,6.0312,-0.01,0.013,0.009,55.0,59.0,56.0,12.7,1504.6,348.7,-0.5,-0.4,967.626,13.26,0.016,322.4
04,2021-11-22T15:00:00,1000.0,42.79,6.0312,-0.021,0.013,-0.003,57.0,57.0,54.0,12.7,1504.6,345.4,-0.5,-0.4,967.603,13.26,0.024,301.8
04,2021-11-22T15:30:00,1000.0,42.79,6.0312,-0.018,0.022,0.025,56.0,57.0,54.0,12.7,1504.6,346.6,-0.5,-0.4,967.64,13.26,0.028,320.7
04,2021-11-22T16:30:00,1000.0,42.79,6.0312,-0.02,0.019,0.007,54.0,56.0,55.0,12.7,1504.6,347.4,-0.5,-0.4,967.627,13.27,0.027,313.5
04,2021-11-22T17:00:00,1000.0,42.79,6.0312,-0.019,0.017,0.007,55.0,58.0,54.0,12.7,1504.6,348.3,-0.5,-0.4,967.628,13.27,0.025,311.8
04,2021-11-22T17:30:00,1000.0,42.79,6.0312,-0.031,0.019,0.012,55.0,60.0,55.0,12.7,1504.6,348.6,-0.5,-0.4,967.653,13.27,0.036,301.5
04,2021-11-22T18:00:00,1000.0,42.79,6.0312,-0.032,0.018,0.005,56.0,57.0,56.0,12.7,1504.6,349.5,-0.5,-0.4,967.694,13.27,0.036,299.4
04,2021-11-22T18:30:00,1000.0,42.79,6.0312,-0.031,0.017,0.012,54.0,53.0,54.0,12.7,1504.6,352.8,-0.5,-0.4,967.652,13.26,0.035,298.7
04,2021-11-22T19:00:00,1000.0,42.79,6.0312,-0.028,0.022,0.012,55.0,59.0,54.0,12.7,1504.6,354.6,-0.5,-0.4,967.724,13.26,0.035,308.2
04,2021-11-22T19:30:00,1000.0,42.79,6.0312,-0.029,0.032,-0.003,56.0,58.0,55.0,12.7,1504.6,353.8,-0.5,-0.4,967.745,13.26,0.043,317.8
04,2021-11-22T20:00:00,1000.0,42.79,6.0312,-0.028,0.016,0.012,53.0,57.0,54.0,12.7,1504.6,355.1,-0.5,-0.4,967.707,13.26,0.032,299.7
04,2021-11-22T20:30:00,1000.0,42.79,6.0312,-0.034,0.022,0.004,56.0,59.0,54.0,12.7,1504.6,354.7,-0.5,-0.4,967.728,13.26,0.04,302.9
04,2021-11-22T21:00:00,1000.0,42.79,6.0312,-0.029,0.029,0.015,57.0,60.0,55.0,12.7,1504.6,355.0,-0.5,-0.4,967.691,13.26,0.041,315.0
